Dewpoint
44 44 44 44 45 47 49 51 52 52 55 56 55 55 54 53 53 54 54 54 53 52 52 51 52 53 47 15 -4 20 61 62 51 39 31 28 26 23 19 16 20 22 17 24 35 44 45
44 44 44 43 44 45 48 49 50 51 53 55 56 55 54 54 53 54 54 53 53 53 52 51 52 53 39 6 15 40 42 48 40 35 30 29 24 24 19 19 20 22 23 30 41 46 48
44 44 43 44 43 43 45 49 49 50 51 53 54 55 54 54 54 54 53 53 52 52 52 52 52 48 35 9 24 31 32 36 36 33 27 27 25 24 20 19 27 25 21 33 42 44 47
45 44 44 45 45 46 44 47 48 49 50 51 53 54 54 53 53 53 53 52 52 52 52 52 51 49 21 19 26 27 29 27 30 34 31 28 28 26 22 27 23 20 21 18 42 43 42
48 46 44 44 46 45 46 46 48 49 50 50 52 53 55 53 53 53 52 52 51 51 51 52 48 42 11 33 21 17 14 16 18 36 30 26 28 24 24 22 18 20 11 15 37 42 41
47 47 47 44 46 43 43 44 48 49 50 50 50 52 54 53 53 52 51 51 49 50 50 49 47 34 23 4 21 26 26 6 18 29 26 26 22 16 16 17 10 12 15 18 27 41 41
47 47 47 46 45 43 43 43 46 49 49 50 50 51 52 53 53 52 48 38 40 45 46 23 20 8 6 20 24 25 25 15 25 26 21 25 18 12 10 18 16 16 16 18 37 41 42
46 47 47 47 46 44 43 43 45 48 48 49 49 50 51 53 52 51 45 33 38 42 42 42 37 25 23 24 21 26 22 17 23 20 20 21 17 15 14 16 20 18 18 24 38 41 41
46 47 48 48 47 45 44 43 44 46 48 47 49 49 51 53 51 47 41 36 42 45 44 37 38 37 32 27 15 20 20 13 20 17 19 16 16 16 18 19 19 19 17 27 28 40 42
47 47 47 48 47 46 45 43 42 44 47 48 49 48 50 52 46 42 36 42 42 47 33 18 28 34 35 28 16 17 20 12 20 17 17 17 16 19 17 15 18 16 18 20 35 35 30
46 47 47 47 47 48 47 45 43 43 46 47 49 48 50 51 47 42 38 43 43 50 8 11 30 36 34 21 11 18 21 15 16 16 18 15 17 19 19 16 17 18 26 26 35 32 35
46 45 46 47 48 48 47 46 45 44 46 47 48 48 49 49 48 45 43 45 51 37 6 19 33 35 32 26 16 19 20 19 17 17 18 15 20 17 19 23 22 33 34 35 35 32 25
45 45 46 46 47 48 47 47 45 45 47 47 48 48 48 49 44 46 47 44 38 22 12 27 31 33 25 17 14 16 17 17 13 16 16 15 19 19 24 30 33 31 30 23 22 21 19
44 45 45 46 47 47 48 47 45 46 47 47 48 48 48 46 47 48 44 43 26 8 8 28 29 28 23 15 14 14 15 11 13 15 13 13 15 19 19 23 26 28 24 17 13 12 17
43 44 45 46 46 47 48 47 46 46 47 47 47 48 47 45 50 49 37 38 19 9 -0 21 26 24 15 13 14 15 16 11 17 19 16 15 13 17 17 18 22 25 20 22 27 31 23
41 43 45 45 46 47 47 47 46 45 47 46 45 45 43 47 52 46 33 34 26 26 34 22 21 18 14 11 14 13 15 13 15 17 22 18 17 18 20 20 22 22 24 23 23 17 14
41 42 44 45 46 47 47 47 46 45 47 46 43 39 43 46 49 40 30 35 33 31 27 27 20 18 10 9 12 15 12 12 17 17 22 24 22 23 22 20 17 22 21 28 27 28 16
42 42 44 44 45 47 47 47 46 46 46 46 41 36 47 48 39 32 30 34 36 30 25 23 31 19 14 13 20 16 11 13 13 21 21 26 27 23 18 22 22 23 24 25 20 24 31
41 42 43 44 45 46 47 46 46 46 46 44 37 39 48 45 32 27 29 31 35 29 18 24 29 24 18 16 22 22 18 26 23 25 27 31 28 22 21 22 22 22 23 25 29 28 24
42 42 44 45 45 45 46 46 46 46 46 45 37 36 42 42 38 29 26 31 33 34 31 23 16 30 24 20 29 30 30 31 32 30 42 37 30 23 18 19 22 24 22 22 22 21 23
43 43 44 45 45 45 46 46 46 46 45 43 37 36 39 35 35 31 27 31 29 31 24 16 24 29 22 23 29 26 31 33 34 38 35 37 31 30 25 23 23 22 21 22 22 25 22
42 44 44 45 45 45 46 45 46 45 45 40 35 37 42 38 35 32 30 26 28 26 27 17 21 29 26 26 26 29 29 29 31 34 31 33 32 31 27 25 25 25 25 27 29 30 31
42 44 44 44 45 45 46 45 45 44 42 40 42 41 39 37 36 31 29 25 26 26 22 19 23 33 33 27 31 33 34 34 34 32 34 34 32 29 26 26 26 27 27 27 31 33 33
43 43 44 45 45 45 45 45 44 44 42 42 42 38 38 35 33 31 25 31 24 25 24 24 30 38 37 40 40 40 39 37 37 37 34 34 32 30 27 26 29 30 31 30 32 34 34
44 44 44 45 45 45 45 45 45 45 43 43 43 38 38 37 34 31 28 26 28 27 29 29 31 41 42 37 35 32 32 30 31 34 33 32 32 31 30 26 26 28 31 33 30 33 34
44 44 44 45 45 44 44 44 45 44 43 44 44 44 40 38 37 32 29 26 24 25 27 30 41 44 42 35 30 31 30 27 28 27 31 33 33 29 35 26 21 28 31 32 32 30 36
44 44 45 45 44 44 44 44 45 44 43 45 44 45 42 39 39 42 32 27 26 31 34 41 39 40 42 33 28 30 31 29 27 26 27 29 29 26 27 30 29 29 32 33 27 29 38
44 45 45 44 44 45 44 45 45 45 43 44 44 45 43 40 40 41 46 44 28 36 36 42 37 38 38 33 32 35 31 32 31 30 28 26 29 29 28 29 34 31 32 29 39 41 40
44 44 44 44 44 45 45 45 45 44 44 45 42 47 49 43 40 43 43 44 43 45 48 44 42 38 39 35 36 34 34 35 31 28 31 31 33 30 31 33 38 35 36 40 40 40 40
Lifted_Index
14 14 14 14 14 13 12 12 11 10 9 8 9 9 10 10 10 10 10 10 11 12 12 12 12 10 8 6 7 7 6 4 5 6 6 6 6 6 6 6 6 5 4 3 2 -0 -1
13 14 14 14 14 14 13 12 12 11 10 9 9 9 9 10 10 10 10 11 11 12 12 12 11 10 7 6 7 8 6 5 5 6 6 6 6 6 7 6 6 5 4 3 1 -1 -1
13 13 14 14 14 14 13 13 12 12 11 10 9 9 9 10 10 10 11 11 12 12 12 12 11 9 7 6 8 9 8 7 6 6 7 7 7 7 7 6 6 5 4 3 1 -0 -1
12 12 13 14 14 14 14 13 12 12 12 11 9 9 9 9 10 10 11 12 12 12 12 11 10 8 6 7 9 9 8 8 7 7 7 8 7 7 7 6 6 5 5 3 2 0 -0
11 11 12 13 13 14 14 13 13 12 12 11 11 9 9 9 10 11 11 12 12 12 11 10 9 8 7 7 8 8 8 8 8 7 8 8 7 7 6 6 5 5 5 4 3 1 0
11 11 12 12 13 14 14 14 13 12 12 12 12 10 9 9 10 10 11 12 11 10 9 9 8 7 7 7 8 8 8 8 7 7 7 7 7 6 6 5 5 5 5 4 3 1 1
11 11 11 12 13 13 14 14 13 13 12 12 12 11 10 9 10 10 11 11 10 8 7 7 7 7 8 8 8 8 8 7 7 7 7 6 5 5 5 5 5 5 5 4 2 1 1
11 11 11 11 12 13 14 14 14 13 13 13 13 12 10 9 10 10 11 11 9 7 6 6 7 7 8 8 7 7 7 7 6 6 6 5 4 4 5 5 5 5 4 3 2 1 0
10 10 10 10 11 12 13 13 14 13 13 13 13 12 11 10 10 11 11 11 9 6 5 5 6 6 7 8 7 7 7 7 6 6 5 5 4 5 5 5 4 4 4 3 2 0 -1
8 8 8 8 8 9 10 11 13 13 13 13 13 13 12 10 10 11 11 10 7 5 4 4 5 6 7 7 7 7 7 7 6 6 6 5 4 4 4 4 4 4 4 3 1 -0 -1
6 6 6 5 5 5 6 8 10 12 12 12 13 13 12 11 10 10 10 8 5 3 3 4 5 5 6 7 7 7 7 7 6 6 6 5 4 4 3 3 4 3 3 2 0 -1 -1
4 4 4 3 3 3 4 5 7 9 10 11 12 13 12 11 10 10 9 7 4 3 3 3 4 5 5 6 7 7 7 7 6 6 5 5 4 4 3 3 3 2 1 1 -0 -1 -1
3 3 3 2 2 2 3 3 5 6 8 10 11 12 12 11 10 10 8 5 3 3 3 3 4 4 5 5 6 6 6 6 6 5 5 4 4 4 3 2 2 1 1 -0 -0 -1 -1
2 2 2 2 2 2 2 3 4 4 6 7 10 11 12 11 10 9 7 4 3 4 4 4 4 4 5 6 6 6 6 6 5 5 4 4 3 3 3 2 1 1 0 -0 -0 -0 -0
2 2 2 2 2 2 2 2 3 4 4 6 8 10 10 10 9 8 6 5 4 5 4 4 4 4 4 5 6 6 6 6 6 5 4 3 3 3 3 2 2 1 0 0 -0 -0 -0
2 1 1 1 1 1 1 2 3 4 4 5 6 8 9 8 8 7 6 5 5 5 4 4 4 4 4 4 5 5 5 6 6 5 4 3 3 2 2 2 1 1 0 -0 -0 -1 -0
1 1 1 1 1 1 1 2 3 4 4 4 5 6 6 7 7 7 7 6 5 5 4 4 4 4 4 4 4 4 5 5 6 5 5 3 3 2 2 2 1 1 0 -0 -1 -1 -1
-0 -0 0 0 1 0 1 1 3 3 4 4 5 4 4 5 7 8 8 6 5 5 5 4 4 4 4 4 4 4 4 5 5 5 5 4 3 2 2 2 1 1 0 -0 -0 -0 -0
-1 -1 -0 0 0 0 0 1 2 3 4 4 4 3 3 5 6 8 8 7 5 5 5 4 4 5 5 4 4 4 4 5 5 5 4 3 3 2 2 1 1 1 1 1 1 1 1
-1 -1 -0 -0 0 0 0 1 2 3 4 4 4 3 3 4 6 7 8 6 5 5 5 4 4 4 4 4 3 3 4 4 4 4 4 3 2 2 2 1 1 2 2 2 2 1 1
-1 -1 -1 -0 -0 0 0 0 1 3 4 5 4 3 2 4 6 7 7 6 5 5 5 4 4 4 4 4 3 3 3 3 4 4 4 3 3 2 2 2 2 2 2 3 2 2 2
-1 -1 -1 -0 -0 -0 -0 0 2 3 5 5 5 3 3 3 5 7 7 7 6 5 5 4 3 3 3 3 3 3 3 3 3 4 4 3 3 3 3 3 3 3 3 3 3 2 2
-1 -1 -0 -0 -0 -0 0 1 2 4 5 5 5 4 3 3 4 6 7 7 7 6 5 4 3 3 3 3 2 2 2 2 3 3 3 3 3 3 3 3 3 3 3 3 3 3 2
-1 -1 -0 -0 -0 -0 0 1 3 4 5 5 5 4 3 3 4 5 6 7 7 7 6 4 3 2 2 2 1 1 1 1 2 2 3 3 3 3 3 3 3 3 4 4 4 3 3
-1 -0 -0 -0 -0 0 1 2 3 4 5 5 5 5 4 3 4 5 6 7 7 6 6 4 3 2 2 1 1 1 1 1 2 2 3 3 3 3 3 2 3 4 4 4 4 3 3
-0 -0 -0 -0 0 0 1 2 3 4 5 5 6 6 5 4 4 5 6 6 6 6 5 3 2 2 2 1 0 1 1 2 2 3 3 3 3 3 3 2 3 4 4 4 4 4 4
-0 -0 -0 -0 0 0 1 2 3 5 5 5 6 6 6 4 4 4 4 5 6 5 3 2 2 2 2 1 0 1 2 2 3 3 3 3 3 3 3 3 3 4 4 4 4 3 4
-0 -0 -0 0 0 0 1 2 4 5 5 6 6 6 6 5 4 3 3 3 4 4 2 1 1 1 1 0 1 1 2 3 3 3 3 3 3 3 3 3 3 4 4 4 4 4 4
-0 0 0 0 0 0 1 2 4 5 6 6 6 6 6 5 4 3 3 3 4 3 2 1 1 1 1 1 1 2 2 3 3 3 4 3 3 3 3 3 4 4 4 4 4 4 4